星链-5969 (STARLINK-5969 )

导读 | 星芒AI

STARLINK-5969 是 SpaceX 星链(Starlink)卫星互联网项目中的一颗低轨通信卫星。它属于星链计划的第二批部署卫星之一,旨在为全球用户提供高速、低延迟的互联网服务。该卫星运行在约 550 公里的近地轨道上,采用先进的通信技术,支持宽带数据传输。作为星链星座的一部分,STARLINK-5969 有助于扩大覆盖范围,特别是在偏远和网络基础设施薄弱的地区。该卫星于 2021 年发射,是 SpaceX 推动全球互联网接入目标的重要组成部分。

基本信息
目录编号:
55993
目录名称:
STARLINK-5969
国际标识:
2023-042H
轨道中心:
EARTH
卫星名称:
星链-5969
卫星全名:
星链-5969 (STARLINK-5969 )
卫星状态:
在轨 (已飞行1003 天)
发射日期:
2023-03-24 UTC
国别 :
美国 (US)
星等 :
--
轨道信息
数据来源 国际轨道数据 AOE轨道数据
星历时间 2025-12-21T03:43:39+0800
22小时前
查看轨道信息
2025-12-21T11:00:00+0800
14小时前
查看轨道信息
半长轴 6937.222km 6937.148km
偏心率 0.0001301 0.0000247
轨道倾角 43.002° 43.003°
近地点辐角 265.190° 42.983°
升交点赤经 124.913° 123.266°
平近点角 94.879° 158.073°
近地点 558.182km 558.839km
远地点 559.988km 559.183km
周期 95.838分钟 95.837分钟
每日圈数 15.025344 15.025583
详细信息
固有亮度:
5
最大亮度:
2.5
卫星平台:
Starlink v1.5
覆盖范围:
全球
运营商:
太空探索技术公司
运营商所在国:
美国
制造商(研发单位):
太空探索技术公司
制造商所在国:
美国
使用方式:
暂无
卫星简介
星链(Starlink)计划是由太空探索技术公司(SpaceX)提出的一个巨型低轨卫星互联网星座项目,计划在2019年至2024年间在太空搭建由约1.2万颗卫星组成的“星链”网络,其中1584颗将部署在地球上空550千米处的近地轨道,并从2020年开始工作。该卫星仍在工作。
2D轨道图
3D轨道图
轨道高度分析图
轨道倾角分析图
轨道综合分析图
查看轨道综合分析图